�������l�o���
Date,Time,MP-1(��Sv/h),MP-2(��Sv/h),MP-3(��Sv/h),MP-4(��Sv/h),MP-5(��Sv/h),MP-6(��Sv/h),MP-7(��Sv/h),MP-8(��Sv/h),����,����(m/s),���J
2021/11/12,00:00,0.576,0.862,0.549,1.052,0.736,0.354,0.613,0.576,��,3.7,��
2021/11/12,00:10,0.576,0.862,0.550,1.051,0.735,0.355,0.613,0.577,���k��,4.1,��
2021/11/12,00:20,0.575,0.863,0.550,1.052,0.735,0.353,0.613,0.578,���k��,5.6,��
2021/11/12,00:30,0.576,0.865,0.552,1.050,0.737,0.354,0.613,0.576,���k��,6.3,��
2021/11/12,00:40,0.576,0.860,0.549,1.051,0.735,0.354,0.613,0.578,���k��,5.5,��
2021/11/12,00:50,0.577,0.863,0.550,1.052,0.737,0.355,0.612,0.576,��,5.8,��
2021/11/12,01:00,0.577,0.863,0.551,1.050,0.734,0.353,0.612,0.577,���k��,6.4,��
2021/11/12,01:10,0.576,0.863,0.550,1.050,0.737,0.354,0.614,0.576,���k��,5.0,��
2021/11/12,01:20,0.577,0.862,0.550,1.050,0.735,0.354,0.614,0.576,���k��,5.4,��
2021/11/12,01:30,0.577,0.862,0.550,1.052,0.735,0.353,0.614,0.575,���k��,5.6,��
2021/11/12,01:40,0.575,0.861,0.550,1.053,0.737,0.354,0.614,0.577,���k��,5.0,��
2021/11/12,01:50,0.578,0.862,0.552,1.053,0.736,0.354,0.613,0.576,�k��,4.7,��
2021/11/12,02:00,0.576,0.862,0.550,1.053,0.735,0.354,0.614,0.576,���k��,5.9,��
2021/11/12,02:10,0.576,0.863,0.549,1.053,0.735,0.354,0.614,0.576,���k��,4.6,��
2021/11/12,02:20,0.576,0.864,0.550,1.052,0.736,0.354,0.611,0.576,���k��,4.7,��
2021/11/12,02:30,0.576,0.862,0.550,1.055,0.736,0.354,0.612,0.576,�k��,5.3,��
2021/11/12,02:40,0.576,0.861,0.549,1.053,0.737,0.354,0.614,0.576,�k��,6.0,��
2021/11/12,02:50,0.577,0.862,0.552,1.055,0.736,0.354,0.612,0.576,�k��,6.5,��
2021/11/12,03:00,0.574,0.861,0.548,1.054,0.734,0.353,0.612,0.576,���k��,6.4,��
2021/11/12,03:10,0.577,0.863,0.551,1.052,0.737,0.353,0.613,0.577,�k��,6.4,��
2021/11/12,03:20,0.576,0.862,0.550,1.052,0.737,0.353,0.612,0.576,���k��,5.4,��
2021/11/12,03:30,0.576,0.862,0.550,1.051,0.735,0.354,0.612,0.576,���k��,4.3,��
2021/11/12,03:40,0.575,0.861,0.550,1.051,0.736,0.353,0.613,0.576,���k��,4.5,��
2021/11/12,03:50,0.573,0.862,0.551,1.051,0.735,0.353,0.612,0.575,���k��,5.3,��
2021/11/12,04:00,0.575,0.861,0.550,1.053,0.735,0.353,0.613,0.577,���k��,6.4,��
2021/11/12,04:10,0.577,0.863,0.550,1.053,0.735,0.352,0.610,0.576,�k��,6.0,��
2021/11/12,04:20,0.576,0.862,0.551,1.052,0.733,0.354,0.613,0.576,�k��,5.2,��
2021/11/12,04:30,0.576,0.861,0.550,1.052,0.735,0.355,0.612,0.577,�k��,5.6,��
2021/11/12,04:40,0.575,0.862,0.549,1.053,0.735,0.353,0.612,0.577,���k��,4.6,��
2021/11/12,04:50,0.576,0.862,0.550,1.053,0.736,0.354,0.613,0.576,��,4.7,��
2021/11/12,05:00,0.574,0.861,0.549,1.053,0.736,0.353,0.612,0.576,���k��,3.8,��
2021/11/12,05:10,0.577,0.859,0.551,1.054,0.736,0.354,0.613,0.577,��,3.0,��
2021/11/12,05:20,0.575,0.860,0.551,1.054,0.735,0.353,0.613,0.577,��,3.0,��
2021/11/12,05:30,0.576,0.862,0.551,1.052,0.735,0.353,0.612,0.577,��,3.4,��
2021/11/12,05:40,0.574,0.860,0.550,1.051,0.735,0.352,0.613,0.577,��,2.6,��
2021/11/12,05:50,0.575,0.862,0.551,1.052,0.737,0.354,0.613,0.576,��,1.5,��
2021/11/12,06:00,0.577,0.861,0.549,1.051,0.735,0.355,0.613,0.575,���k��,2.2,��
2021/11/12,06:10,0.575,0.861,0.551,1.052,0.735,0.353,0.612,0.576,��,1.7,��
2021/11/12,06:20,0.576,0.861,0.549,1.054,0.736,0.353,0.613,0.576,��,1.4,��
2021/11/12,06:30,0.578,0.861,0.551,1.054,0.735,0.353,0.612,0.576,���k��,1.5,��
2021/11/12,06:40,0.576,0.860,0.550,1.053,0.736,0.353,0.613,0.576,���k��,1.4,��
2021/11/12,06:50,0.575,0.862,0.548,1.053,0.734,0.354,0.612,0.577,���쐼,1.7,��
2021/11/12,07:00,0.575,0.862,0.551,1.053,0.736,0.352,0.612,0.577,�쐼,3.7,��
2021/11/12,07:10,0.576,0.859,0.551,1.053,0.737,0.353,0.613,0.577,�쐼,4.1,��
2021/11/12,07:20,0.576,0.861,0.548,1.053,0.736,0.354,0.611,0.577,�쐼,3.4,��
2021/11/12,07:30,0.576,0.862,0.549,1.053,0.737,0.353,0.611,0.576,��쐼,2.3,��
2021/11/12,07:40,0.576,0.863,0.548,1.053,0.735,0.354,0.614,0.576,��쐼,2.2,��
2021/11/12,07:50,0.576,0.863,0.549,1.054,0.735,0.352,0.613,0.577,��쐼,2.3,��
2021/11/12,08:00,0.575,0.861,0.549,1.054,0.736,0.352,0.613,0.576,�쐼,2.9,��
2021/11/12,08:10,0.578,0.864,0.551,1.053,0.735,0.353,0.613,0.577,���쐼,2.9,��
2021/11/12,08:20,0.578,0.862,0.551,1.056,0.735,0.351,0.613,0.577,���쐼,2.6,��
2021/11/12,08:30,0.578,0.860,0.550,1.055,0.738,0.352,0.612,0.579,�쐼,2.9,��
2021/11/12,08:40,0.577,0.862,0.549,1.055,0.736,0.353,0.615,0.577,���쐼,2.5,��
2021/11/12,08:50,0.578,0.860,0.557,1.055,0.738,0.355,0.612,0.578,���쐼,1.1,��
2021/11/12,09:00,0.577,0.860,0.550,1.054,0.737,0.354,0.610,0.578,-,CALM,��
2021/11/12,09:10,0.579,0.862,0.550,1.051,0.738,0.356,0.611,0.577,���쓌,1.2,��
2021/11/12,09:20,0.578,0.860,0.551,1.051,0.737,0.355,0.612,0.576,-,CALM,��
2021/11/12,09:30,0.577,0.860,0.551,1.055,0.737,0.355,0.613,0.578,��,1.5,��
2021/11/12,09:40,0.579,0.860,0.552,1.054,0.737,0.354,0.611,0.577,���쓌,2.0,��
2021/11/12,09:50,0.577,0.862,0.559,1.053,0.737,0.355,0.612,0.577,�쓌,2.6,��
2021/11/12,10:00,0.579,0.859,0.553,1.055,0.738,0.353,0.613,0.578,�쓌,4.3,��
2021/11/12,10:10,0.577,0.860,0.553,1.054,0.739,0.355,0.612,0.579,��쓌,4.7,��
2021/11/12,10:20,0.578,0.860,0.551,1.055,0.741,0.354,0.612,0.577,��쓌,5.1,��
2021/11/12,10:30,0.578,0.861,0.551,1.055,0.739,0.354,0.612,0.578,�쓌,4.3,��
2021/11/12,10:40,0.577,0.861,0.550,1.056,0.739,0.352,0.612,0.579,�쓌,3.3,��
2021/11/12,10:50,0.577,0.861,0.551,1.053,0.739,0.353,0.613,0.578,��쓌,4.0,��
2021/11/12,11:00,0.580,0.862,0.550,1.054,0.738,0.354,0.612,0.577,�쓌,4.8,��
2021/11/12,11:10,0.579,0.863,0.550,1.055,0.737,0.353,0.614,0.579,�쓌,4.7,��
2021/11/12,11:20,0.578,0.863,0.552,1.055,0.737,0.352,0.612,0.577,�쓌,4.8,��
2021/11/12,11:30,0.579,0.863,0.551,1.055,0.736,0.353,0.613,0.578,�쓌,4.9,��
2021/11/12,11:40,0.579,0.864,0.551,1.056,0.736,0.352,0.612,0.579,�쓌,4.2,��
2021/11/12,11:50,0.579,0.864,0.550,1.058,0.740,0.354,0.612,0.579,�쓌,3.7,��
2021/11/12,12:00,0.580,0.867,0.552,1.055,0.738,0.354,0.612,0.579,��쓌,4.4,��
2021/11/12,12:10,0.579,0.865,0.552,1.057,0.740,0.354,0.613,0.578,��쓌,3.8,��
2021/11/12,12:20,0.579,0.865,0.552,1.055,0.739,0.355,0.614,0.576,�쓌,2.6,��
2021/11/12,12:30,0.579,0.864,0.552,1.057,0.740,0.354,0.613,0.576,���k��,1.7,��
2021/11/12,12:40,0.579,0.864,0.550,1.056,0.735,0.355,0.612,0.576,��,0.6,��
2021/11/12,12:50,0.579,0.864,0.552,1.055,0.740,0.355,0.613,0.576,�k�k��,0.9,��
2021/11/12,13:00,0.579,0.863,0.551,1.055,0.739,0.355,0.612,0.576,���k��,4.5,��
2021/11/12,13:10,0.578,0.863,0.549,1.056,0.740,0.355,0.614,0.576,���쐼,5.8,��
2021/11/12,13:20,0.578,0.862,0.552,1.058,0.740,0.353,0.613,0.575,���쐼,8.9,�L
2021/11/12,13:30,0.579,0.865,0.553,1.056,0.737,0.354,0.612,0.577,��,7.5,��
2021/11/12,13:40,0.578,0.865,0.553,1.058,0.737,0.356,0.613,0.576,��,7.7,��
2021/11/12,13:50,0.579,0.864,0.553,1.056,0.739,0.356,0.613,0.577,���k��,8.8,��
2021/11/12,14:00,0.578,0.865,0.553,1.056,0.740,0.356,0.613,0.580,���k��,10.2,��
2021/11/12,14:10,0.577,0.864,0.552,1.060,0.740,0.354,0.613,0.575,���k��,10.0,��
2021/11/12,14:20,0.579,0.864,0.553,1.057,0.740,0.355,0.614,0.577,���k��,6.4,��
2021/11/12,14:30,0.579,0.863,0.552,1.056,0.739,0.353,0.611,0.575,���k��,3.3,��
2021/11/12,14:40,0.579,0.863,0.551,1.057,0.741,0.354,0.613,0.576,���k��,5.4,��
2021/11/12,14:50,0.579,0.865,0.552,1.058,0.741,0.355,0.613,0.575,���k��,7.4,��
2021/11/12,15:00,0.578,0.864,0.551,1.059,0.742,0.354,0.613,0.576,���k��,5.3,��
2021/11/12,15:10,0.577,0.865,0.552,1.058,0.743,0.354,0.613,0.575,���k��,7.5,��
2021/11/12,15:20,0.577,0.867,0.552,1.059,0.739,0.355,0.613,0.576,��,10.7,��
2021/11/12,15:30,0.578,0.866,0.550,1.057,0.739,0.355,0.613,0.577,���k��,11.6,��
2021/11/12,15:40,0.577,0.869,0.552,1.059,0.740,0.355,0.614,0.577,��,11.3,��
2021/11/12,15:50,0.576,0.868,0.551,1.058,0.740,0.355,0.614,0.577,���k��,9.4,��
2021/11/12,16:00,0.576,0.870,0.552,1.059,0.740,0.357,0.613,0.578,��,8.5,��
2021/11/12,16:10,0.578,0.870,0.552,1.059,0.740,0.356,0.611,0.577,���k��,8.4,��
2021/11/12,16:20,0.577,0.870,0.551,1.060,0.739,0.355,0.613,0.579,��,8.2,��
2021/11/12,16:30,0.577,0.869,0.553,1.060,0.740,0.355,0.614,0.577,���k��,7.5,��
2021/11/12,16:40,0.579,0.870,0.553,1.059,0.741,0.354,0.613,0.578,���k��,8.6,��
2021/11/12,16:50,0.579,0.867,0.552,1.059,0.740,0.357,0.613,0.579,���k��,6.4,��
2021/11/12,17:00,0.579,0.869,0.554,1.059,0.742,0.355,0.612,0.579,�k��,5.6,��
2021/11/12,17:10,0.580,0.868,0.553,1.059,0.743,0.355,0.612,0.579,�k��,5.6,��
2021/11/12,17:20,0.580,0.869,0.553,1.061,0.742,0.355,0.614,0.578,�k�k��,5.2,��
2021/11/12,17:30,0.578,0.869,0.553,1.058,0.744,0.355,0.614,0.579,�k�k��,5.9,��
2021/11/12,17:40,0.579,0.869,0.554,1.060,0.743,0.355,0.613,0.578,�k�k��,6.6,��
2021/11/12,17:50,0.580,0.868,0.553,1.060,0.742,0.355,0.614,0.578,�k�k��,6.7,��
2021/11/12,18:00,0.580,0.868,0.553,1.057,0.742,0.355,0.614,0.578,�k�k��,5.5,��
2021/11/12,18:10,0.580,0.869,0.553,1.060,0.744,0.356,0.616,0.578,�k��,6.0,��
2021/11/12,18:20,0.580,0.870,0.553,1.061,0.744,0.356,0.614,0.579,�k��,6.5,��
2021/11/12,18:30,0.580,0.870,0.554,1.059,0.743,0.355,0.615,0.579,�k��,7.9,��
2021/11/12,18:40,0.580,0.871,0.554,1.058,0.743,0.356,0.615,0.578,�k��,7.7,��
2021/11/12,18:50,0.580,0.869,0.553,1.060,0.741,0.356,0.614,0.578,�k��,8.9,��
2021/11/12,19:00,0.578,0.869,0.552,1.060,0.742,0.355,0.614,0.579,�k��,8.4,��
2021/11/12,19:10,0.580,0.870,0.555,1.060,0.743,0.356,0.614,0.578,���k��,9.9,��
2021/11/12,19:20,0.580,0.871,0.554,1.060,0.743,0.354,0.614,0.580,���k��,11.4,��
2021/11/12,19:30,0.580,0.870,0.554,1.062,0.744,0.355,0.614,0.579,���k��,11.9,��
2021/11/12,19:40,0.581,0.870,0.553,1.061,0.744,0.356,0.614,0.580,���k��,12.1,��
2021/11/12,19:50,0.579,0.869,0.554,1.062,0.744,0.355,0.614,0.578,���k��,13.8,��
2021/11/12,20:00,0.580,0.870,0.555,1.063,0.744,0.355,0.615,0.580,���k��,13.5,��
2021/11/12,20:10,0.582,0.870,0.553,1.062,0.745,0.355,0.613,0.578,���k��,12.1,��
2021/11/12,20:20,0.580,0.870,0.554,1.060,0.742,0.357,0.614,0.579,���k��,11.9,��
2021/11/12,20:30,0.580,0.868,0.552,1.062,0.742,0.354,0.614,0.579,���k��,11.6,��
2021/11/12,20:40,0.581,0.870,0.553,1.064,0.744,0.355,0.613,0.579,���k��,12.1,��
2021/11/12,20:50,0.581,0.870,0.555,1.062,0.742,0.355,0.612,0.579,���k��,13.8,��
2021/11/12,21:00,0.580,0.872,0.554,1.063,0.743,0.355,0.614,0.579,��,10.7,��
2021/11/12,21:10,0.580,0.870,0.553,1.063,0.744,0.355,0.612,0.578,���k��,11.4,��
2021/11/12,21:20,0.581,0.870,0.552,1.061,0.745,0.355,0.613,0.579,���k��,12.4,��
2021/11/12,21:30,0.581,0.869,0.554,1.062,0.743,0.356,0.613,0.578,���k��,11.8,��
2021/11/12,21:40,0.580,0.870,0.555,1.061,0.742,0.357,0.614,0.580,���k��,10.2,��
2021/11/12,21:50,0.582,0.869,0.554,1.063,0.743,0.356,0.613,0.578,���k��,9.4,��
2021/11/12,22:00,0.580,0.870,0.554,1.064,0.745,0.356,0.613,0.579,���k��,10.4,��
2021/11/12,22:10,0.580,0.870,0.552,1.063,0.745,0.356,0.614,0.579,���k��,8.6,��
2021/11/12,22:20,0.581,0.870,0.554,1.062,0.743,0.355,0.612,0.578,���k��,9.6,��
2021/11/12,22:30,0.581,0.869,0.553,1.063,0.744,0.357,0.614,0.580,���k��,8.8,��
2021/11/12,22:40,0.581,0.871,0.553,1.062,0.744,0.355,0.614,0.579,���k��,9.6,��
2021/11/12,22:50,0.581,0.868,0.554,1.065,0.744,0.355,0.613,0.579,�k��,8.8,��
2021/11/12,23:00,0.580,0.871,0.554,1.063,0.744,0.356,0.614,0.580,�k��,6.9,��
2021/11/12,23:10,0.581,0.868,0.553,1.065,0.743,0.354,0.614,0.576,�k��,5.6,��
2021/11/12,23:20,0.580,0.871,0.552,1.062,0.743,0.356,0.616,0.577,���k��,2.6,��
2021/11/12,23:30,0.580,0.869,0.555,1.062,0.744,0.355,0.615,0.578,-,CALM,��
2021/11/12,23:40,0.581,0.869,0.553,1.064,0.743,0.355,0.616,0.579,�k�k��,1.2,��
2021/11/12,23:50,0.579,0.869,0.553,1.060,0.744,0.355,0.615,0.577,�k��,2.3,��
